CW4477 Weather Reports


time (UTC)temp
C
wind
direction
speed
KPH
gust
KPH
rain 1hr
cm
rain 24hr
cm
rain mn
cm
humidity
%
barometer
mb
20260906113058 22 56 4.8 12.9 0.00 0.00 0.00 78 1017.8
20260906112817 22 37 0.0 9.7 0.00 0.00 0.00 78 1017.8
20260906112053 22 163 1.6 9.7 0.00 0.00 0.00 78 1017.8
20260906111553 22 348 3.2 8.0 0.00 0.00 0.00 78 1017.7
20260906111053 22 140 1.6 4.8 0.00 0.00 0.00 78 1017.7
20260906110551 22 2 0.0 4.8 0.00 0.00 0.00 78 1017.6
20260906110307 22 2 3.2 4.8 0.00 0.00 0.00 78 1017.6
20260906105544 22 329 0.0 4.8 0.00 0.00 0.00 77 1017.6
20260906105307 22 160 0.0 4.8 0.00 0.00 0.00 78 1017.5
20260906104523 22 160 0.0 6.4 0.00 0.00 0.00 78 1017.6
20260906104022 22 205 0.0 6.4 0.00 0.00 0.00 77 1017.4
20260906103521 22 90 0.0 8.0 0.00 0.00 0.00 77 1017.2
20260906103022 22 75 0.0 9.7 0.00 0.00 0.00 77 1017.2
20260906102508 22 50 3.2 9.7 0.00 0.00 0.00 77 1017.2
20260906102225 22 50 0.0 8.0 0.00 0.00 0.00 76 1017.1
20260906101507 22 87 1.6 8.0 0.00 0.00 0.00 76 1017.1
20260906101005 22 22 0.0 0.0 0.00 0.00 0.00 76 1017.1
20260906100701 22 22 0.0 8.0 0.00 0.00 0.00 75 1017.1
20260906095913 22 22 0.0 8.0 0.00 0.00 0.00 75 1017.0
20260906095414 23 33 0.0 4.8 0.00 0.00 0.00 75 1017.0
20260906094911 23 14 1.6 9.7 0.00 0.00 0.00 75 1017.1
20260906094411 23 281 0.0 9.7 0.00 0.00 0.00 74 1017.0
20260906094343 23 115 0.0 3.2 0.00 0.00 0.00 74 1017.0
20260906093348 23 67 0.0 4.8 0.00 0.00 0.00 74 1016.9
20260906092846 23 39 3.2 6.4 0.00 0.00 0.00 74 1016.9
20260906092558 23 165 1.6 9.7 0.00 0.00 0.00 73 1017.0
20260906092444 23 28 1.6 9.7 0.00 0.00 0.00 74 1017.0
20260906091344 23 80 0.0 8.0 0.00 0.00 0.00 73 1016.9
20260906090830 23 140 3.2 8.0 0.00 0.00 0.00 73 1017.0
20260906090328 23 126 1.6 8.0 0.00 0.00 0.00 73 1016.9
20260906085827 23 75 1.6 8.0 0.00 0.00 0.00 73 1016.9
20260906085321 23 108 4.8 8.0 0.00 0.00 0.00 73 1016.9
20260906084823 23 18 1.6 6.4 0.00 0.00 0.00 73 1016.9
20260906084308 23 5 1.6 6.4 0.00 0.00 0.00 73 1016.9
20260906083810 23 338 0.0 9.7 0.00 0.00 0.00 73 1016.9
20260906083244 23 101 4.8 9.7 0.00 0.00 0.00 73 1016.8
20260906082744 23 56 0.0 11.3 0.00 0.00 0.00 74 1016.8
20260906082502 23 171 4.8 11.3 0.00 0.00 0.00 74 1016.8
20260906081737 23 60 4.8 11.3 0.00 0.00 0.00 75 1016.8
20260906081236 23 111 1.6 11.3 0.00 0.00 0.00 75 1016.8
20260906080736 23 102 3.2 9.7 0.00 0.00 0.00 75 1016.8
20260906080237 23 56 1.6 8.0 0.00 0.00 0.00 75 1016.8
20260906075733 23 53 1.6 8.0 0.00 0.00 0.00 75 1016.9
20260906075232 23 67 0.0 11.3 0.00 0.00 0.00 75 1016.9
20260906074720 23 67 1.6 11.3 0.00 0.00 0.00 75 1016.8
20260906074217 23 136 0.0 9.7 0.00 0.00 0.00 75 1016.8
20260906073719 23 73 0.0 8.0 0.00 0.00 0.00 76 1016.8
20260906073217 23 54 0.0 9.7 0.00 0.00 0.00 76 1016.8
20260906072706 23 144 1.6 9.7 0.00 0.00 0.00 76 1016.9
20260906072203 23 40 4.8 11.3 0.00 0.00 0.00 76 1017.0
20260906071702 23 46 0.0 11.3 0.00 0.00 0.00 77 1017.0
20260906071203 23 345 4.8 11.3 0.00 0.00 0.00 77 1017.0
20260906070701 23 99 4.8 11.3 0.00 0.00 0.00 77 1017.0
20260906070201 23 327 0.0 4.8 0.00 0.00 0.00 77 1016.9
20260906065650 23 43 0.0 4.8 0.00 0.00 0.00 77 1016.9
20260906065131 23 82 0.0 6.4 0.00 0.00 0.00 76 1017.0
20260906064625 23 37 1.6 6.4 0.00 0.00 0.00 76 1017.0
20260906064111 23 132 3.2 6.4 0.00 0.00 0.00 76 1016.9
20260906063604 23 46 0.0 4.8 0.00 0.00 0.00 76 1017.0
20260906063101 23 340 1.6 8.0 0.00 0.00 0.00 76 1017.0
20260906062550 23 60 0.0 9.7 0.00 0.00 0.00 76 1016.9
20260906062039 23 144 1.6 9.7 0.00 0.00 0.00 77 1016.9
20260906061537 23 28 3.2 9.7 0.00 0.00 0.00 77 1017.0
20260906061305 23 348 4.8 14.5 0.00 0.00 0.00 77 1017.0
20260906060536 23 267 0.0 14.5 0.00 0.00 0.00 78 1016.9
20260906060300 23 12 1.6 9.7 0.00 0.00 0.00 78 1017.0
20260906055531 23 331 1.6 9.7 0.00 0.00 0.00 79 1017.0
20260906055031 23 92 1.6 8.0 0.00 0.00 0.00 79 1016.9
20260906054530 23 1 3.2 9.7 0.00 0.00 0.00 79 1016.8
20260906054030 23 33 0.0 9.7 0.00 0.00 0.00 80 1016.9
20260906053531 23 14 0.0 9.7 0.00 0.00 0.00 80 1016.9
20260906053027 23 30 0.0 11.3 0.00 0.00 0.00 80 1016.8
20260906052514 23 30 4.8 11.3 0.00 0.00 0.00 80 1016.7
20260906052013 23 2 3.2 9.7 0.00 0.00 0.00 80 1016.6
20260906051507 23 350 1.6 9.7 0.00 0.00 0.00 81 1016.5
20260906051007 23 33 1.6 9.7 0.00 0.00 0.00 81 1016.5
20260906050510 22 30 1.6 11.3 0.00 0.00 0.00 81 1016.5
20260906050005 23 344 0.0 14.5 0.00 0.00 0.00 81 1016.5
20260906045504 23 5 4.8 14.5 0.00 0.00 0.00 81 1016.5
20260906045227 23 316 0.0 8.0 0.00 0.00 0.00 81 1016.5
20260906044459 23 358 0.0 8.0 0.00 0.00 0.00 81 1016.4
20260906044220 23 47 1.6 9.7 0.00 0.00 0.00 81 1016.3
20260906043458 23 5 1.6 9.7 0.00 0.00 0.00 81 1016.3
20260906043208 23 345 3.2 8.0 0.00 0.00 0.00 81 1016.2
20260906042809 23 50 1.6 12.9 0.00 0.00 0.00 80 1016.2
20260906042725 23 5 3.2 12.9 0.00 0.00 0.00 81 1016.2
20260906041448 23 23 4.8 12.9 0.00 0.00 0.00 80 1016.2
20260906041207 23 317 3.2 12.9 0.00 0.00 0.00 80 1016.1
20260906040444 23 149 3.2 11.3 0.00 0.00 0.00 80 1015.9
20260906035943 23 5 3.2 12.9 0.00 0.00 0.00 80 1015.9
20260906035444 23 2 3.2 12.9 0.00 0.00 0.00 80 1015.9
20260906034945 23 341 1.6 9.7 0.00 0.00 0.00 80 1015.9
20260906034437 23 7 1.6 14.5 0.00 0.00 0.00 80 1015.9
20260906033930 23 11 4.8 16.1 0.00 0.00 0.00 80 1015.9
20260906033651 23 5 4.8 16.1 0.00 0.00 0.00 80 1015.9
20260906032928 23 1 1.6 14.5 0.00 0.00 0.00 80 1015.9
20260906032750 23 29 1.6 14.5 0.00 0.00 0.00 80 1015.9
20260906032713 23 21 3.2 14.5 0.00 0.00 0.00 80 1016.1
20260906031649 23 340 4.8 16.1 0.00 0.00 0.00 79 1015.9
20260906030927 23 157 1.6 20.9 0.00 0.00 0.00 79 1015.9
20260906030429 23 14 6.4 20.9 0.00 0.00 0.00 79 1016.1
20260906025925 23 341 6.4 16.1 0.00 0.00 0.00 79 1016.1
20260906025423 23 26 1.6 16.1 0.00 0.00 0.00 79 1015.9
20260906024922 23 14 3.2 16.1 0.00 0.00 0.00 78 1016.1
20260906024420 23 37 8.0 16.1 0.00 0.00 0.00 78 1015.9
20260906023920 23 33 4.8 12.9 0.00 0.00 0.00 78 1015.9
20260906023648 23 22 3.2 16.1 0.00 0.00 0.00 78 1015.9
20260906022918 23 171 3.2 17.7 0.00 0.00 0.00 78 1015.9
20260906022418 23 8 0.0 17.7 0.00 0.00 0.00 78 1016.1
20260906021916 23 26 6.4 20.9 0.00 0.00 0.00 78 1016.2
20260906021904 23 14 11.3 20.9 0.00 0.00 0.00 77 1016.2
20260906020914 23 95 6.4 16.1 0.00 0.00 0.00 77 1016.3
20260906020417 23 21 3.2 17.7 0.00 0.00 0.00 77 1016.3
20260906015913 23 22 8.0 17.7 0.00 0.00 0.00 77 1016.2
20260906015412 23 12 6.4 19.3 0.00 0.00 0.00 77 1016.2
20260906015134 23 25 8.0 19.3 0.00 0.00 0.00 77 1016.3
20260906014410 23 21 1.6 16.1 0.00 0.00 0.00 77 1016.3
20260906013910 23 30 4.8 16.1 0.00 0.00 0.00 77 1016.3
20260906013409 23 14 8.0 16.1 0.00 0.00 0.00 77 1016.2
20260906012909 23 14 6.4 16.1 0.00 0.00 0.00 77 1016.3
20260906012406 23 330 4.8 16.1 0.00 0.00 0.00 77 1016.2
20260906011904 23 35 6.4 16.1 0.00 0.00 0.00 77 1016.2
20260906011404 23 333 8.0 16.1 0.00 0.00 0.00 77 1016.2
20260906010901 23 8 4.8 14.5 0.00 0.00 0.00 78 1015.9
20260906010400 23 355 4.8 14.5 0.00 0.00 0.00 78 1015.8
20260906005900 23 319 3.2 20.9 0.00 0.00 0.00 78 1015.7
20260906005400 23 343 8.0 20.9 0.00 0.00 0.00 79 1015.7
20260906004856 23 29 4.8 14.5 0.00 0.00 0.00 79 1015.6
20260906004354 23 63 8.0 19.3 0.00 0.00 0.00 79 1015.6
20260906003854 23 357 4.8 20.9 0.00 0.00 0.00 79 1015.5
20260906003354 23 8 8.0 20.9 0.00 0.00 0.00 78 1015.5
20260906002852 23 63 1.6 14.5 0.00 0.00 0.00 78 1015.5
20260906002613 23 28 4.8 19.3 0.00 0.00 0.00 78 1015.4
20260906001851 23 19 8.0 19.3 0.00 0.00 0.00 78 1015.4
20260906001349 23 22 6.4 17.7 0.00 0.00 0.00 78 1015.5
20260906000849 23 340 3.2 22.5 0.00 0.00 0.00 78 1015.4
20260906000348 22 11 6.4 22.5 0.00 0.00 0.00 78 1015.4
20260905235847 23 19 4.8 14.5 0.00 0.00 0.00 78 1015.5
20260905235347 22 49 6.4 24.1 0.00 0.00 0.00 78 1015.5
20260905234848 22 22 9.7 24.1 0.00 0.00 0.00 78 1015.6
20260905234346 22 15 9.7 24.1 0.00 0.00 0.00 78 1015.6
20260905233845 23 320 4.8 24.1 0.00 0.00 0.00 78 1015.6
20260905233340 22 45 8.0 24.1 0.00 0.00 0.00 77 1015.5
20260905232839 23 39 6.4 24.1 0.00 0.00 0.00 77 1015.5
20260905232338 23 37 6.4 24.1 0.00 0.00 0.00 77 1015.5
20260905232058 22 21 6.4 24.1 0.00 0.00 0.00 76 1015.4
20260905231337 23 324 4.8 20.9 0.00 0.00 0.00 77 1015.3
20260905230836 23 127 8.0 20.9 0.00 0.00 0.00 77 1015.3
20260905230558 22 14 11.3 27.4 0.00 0.00 0.00 77 1015.2
20260905225834 23 8 6.4 27.4 0.00 0.00 0.00 77 1015.2
20260905225334 23 7 14.5 27.4 0.00 0.00 0.00 77 1015.2
20260905224832 23 322 4.8 20.9 0.00 0.00 0.00 77 1015.2
20260905224333 23 129 6.4 20.9 0.00 0.00 0.00 77 1015.3
20260905223830 23 43 8.0 20.9 0.00 0.00 0.00 77 1015.3
20260905223329 23 52 9.7 20.9 0.00 0.00 0.00 76 1015.3
20260905223324 23 358 4.8 20.9 0.00 0.00 0.00 75 1015.4
20260905222326 24 322 6.4 20.9 0.00 0.00 0.00 76 1015.2
20260905221825 24 26 4.8 17.7 0.00 0.00 0.00 76 1015.1
20260905221326 24 26 4.8 17.7 0.00 0.00 0.00 76 1015.0
20260905220823 24 355 8.0 24.1 0.00 0.00 0.00 75 1015.0
20260905220321 24 50 4.8 24.1 0.00 0.00 0.00 75 1015.1
20260905220049 24 21 3.2 24.1 0.00 0.00 0.00 74 1015.0
20260905215320 25 1 4.8 17.7 0.00 0.00 0.00 73 1014.9
20260905214819 25 340 3.2 20.9 0.00 0.00 0.00 73 1014.9
20260905214318 25 341 6.4 20.9 0.00 0.00 0.00 73 1014.9
20260905213816 25 36 9.7 20.9 0.00 0.00 0.00 73 1014.8
20260905213316 25 4 3.2 20.9 0.00 0.00 0.00 74 1014.7
20260905212815 25 16 9.7 20.9 0.00 0.00 0.00 73 1014.7
20260905212318 25 1 9.7 20.9 0.00 0.00 0.00 73 1014.6
20260905212035 25 319 6.4 20.9 0.00 0.00 0.00 73 1014.7
20260905211530 25 5 11.3 19.3 0.00 0.00 0.00 73 1014.7
20260905210812 25 303 6.4 19.3 0.00 0.00 0.00 73 1014.7
20260905210309 25 32 8.0 17.7 0.00 0.00 0.00 71 1014.7
20260905205809 25 30 9.7 17.7 0.00 0.00 0.00 69 1014.7
20260905205307 25 355 8.0 19.3 0.00 0.00 0.00 69 1014.7
20260905205028 26 324 6.4 19.3 0.00 0.00 0.00 69 1014.7
20260905204306 25 4 9.7 19.3 0.00 0.00 0.00 69 1014.7
20260905203805 25 358 9.7 16.1 0.00 0.00 0.00 69 1014.7
20260905203304 25 18 6.4 16.1 0.00 0.00 0.00 70 1014.7
20260905203022 26 29 6.4 16.1 0.00 0.00 0.00 68 1014.7
20260905202527 26 2 4.8 17.7 0.00 0.00 0.00 69 1014.6
20260905201803 26 50 3.2 17.7 0.00 0.00 0.00 69 1014.7
20260905201303 26 348 9.7 17.7 0.00 0.00 0.00 68 1014.7
20260905201023 26 302 3.2 17.7 0.00 0.00 0.00 67 1014.8
20260905200258 26 2 6.4 19.3 0.00 0.00 0.00 66 1014.8
20260905195759 26 358 6.4 19.3 0.00 0.00 0.00 65 1014.8
20260905195256 26 241 4.8 22.5 0.00 0.00 0.00 67 1014.8
20260905194756 26 16 4.8 22.5 0.00 0.00 0.00 68 1014.8
20260905194255 26 5 6.4 20.9 0.00 0.00 0.00 66 1014.9
20260905193755 26 330 6.4 17.7 0.00 0.00 0.00 67 1014.9
20260905193255 26 8 4.8 17.7 0.00 0.00 0.00 67 1014.9
20260905192753 26 43 4.8 17.7 0.00 0.00 0.00 68 1014.9
20260905192252 26 347 8.0 16.1 0.00 0.00 0.00 68 1015.0
20260905191750 26 336 8.0 17.7 0.00 0.00 0.00 68 1015.0
20260905191250 26 42 8.0 17.7 0.00 0.00 0.00 69 1015.0
20260905190750 26 25 9.7 24.1 0.00 0.00 0.00 69 1014.9
20260905190251 26 327 3.2 24.1 0.00 0.00 0.00 69 1015.0
20260905185747 26 358 6.4 24.1 0.00 0.00 0.00 68 1015.0
20260905185504 26 358 6.4 19.3 0.00 0.00 0.00 67 1015.0
20260905184745 26 345 4.8 17.7 0.00 0.00 0.00 68 1015.1
20260905184246 26 350 6.4 17.7 0.00 0.00 0.00 68 1015.1
20260905183744 26 5 6.4 17.7 0.00 0.00 0.00 69 1015.1
20260905183244 26 331 4.8 22.5 0.00 0.00 0.00 70 1015.0
20260905182742 25 317 9.7 22.5 0.00 0.00 0.00 70 1015.1
20260905182241 26 30 9.7 22.5 0.00 0.00 0.00 69 1015.2
20260905181740 26 19 8.0 22.5 0.00 0.00 0.00 68 1015.2
20260905181240 26 299 9.7 20.9 0.00 0.00 0.00 68 1015.0
20260905181005 26 340 4.8 20.9 0.00 0.00 0.00 69 1015.0
20260905180237 26 355 4.8 17.7 0.00 0.00 0.00 69 1014.9
20260905175738 26 313 4.8 17.7 0.00 0.00 0.00 70 1014.9
20260905175234 26 33 4.8 16.1 0.00 0.00 0.00 69 1015.0
20260905174734 26 316 3.2 16.1 0.00 0.00 0.00 69 1014.9
20260905174232 26 358 4.8 16.1 0.00 0.00 0.00 68 1014.9
20260905173733 26 358 8.0 19.3 0.00 0.00 0.00 68 1014.9
20260905173231 26 319 3.2 20.9 0.00 0.00 0.00 68 1014.9
20260905172730 26 50 9.7 20.9 0.00 0.00 0.00 68 1014.9
20260905172231 26 2 3.2 19.3 0.00 0.00 0.00 70 1015.0
20260905171727 25 2 9.7 24.1 0.00 0.00 0.00 71 1015.0
20260905171226 25 26 3.2 24.1 0.00 0.00 0.00 73 1015.0
20260905170725 25 29 8.0 24.1 0.00 0.00 0.00 72 1015.1
20260905170224 25 32 1.6 14.5 0.00 0.00 0.00 72 1015.1
20260905165724 25 25 6.4 12.9 0.00 0.00 0.00 72 1015.2
20260905165224 25 18 6.4 12.9 0.00 0.00 0.00 71 1015.1
20260905164721 26 33 4.8 16.1 0.00 0.00 0.00 70 1015.1
20260905164220 26 23 6.4 17.7 0.00 0.00 0.00 70 1015.1
20260905163721 26 12 9.7 17.7 0.00 0.00 0.00 70 1015.1
20260905163219 26 18 4.8 17.7 0.00 0.00 0.00 70 1015.2
20260905162719 26 18 6.4 12.9 0.00 0.00 0.00 70 1015.2
20260905162218 26 102 4.8 16.1 0.00 0.00 0.00 72 1015.1
20260905161712 25 8 4.8 17.7 0.00 0.00 0.00 73 1015.1
20260905161215 25 317 4.8 17.7 0.00 0.00 0.00 73 1015.0
20260905160709 25 0 8.0 17.7 0.00 0.00 0.00 73 1015.0
20260905160207 25 25 3.2 20.9 0.00 0.00 0.00 74 1014.9
20260905155708 25 30 8.0 20.9 0.00 0.00 0.00 73 1014.9
20260905155209 25 286 4.8 20.9 0.00 0.00 0.00 73 1014.8
20260905154924 25 336 4.8 20.9 0.00 0.00 0.00 73 1014.7
20260905154205 25 350 8.0 20.9 0.00 0.00 0.00 72 1014.8
20260905153703 25 46 6.4 20.9 0.00 0.00 0.00 72 1014.7
20260905153203 25 15 4.8 14.5 0.00 0.00 0.00 73 1014.7
20260905152702 25 14 6.4 16.1 0.00 0.00 0.00 73 1014.7
20260905152201 25 350 3.2 16.1 0.00 0.00 0.00 73 1014.6
20260905151700 25 43 6.4 19.3 0.00 0.00 0.00 73 1014.6
20260905151200 25 1 6.4 19.3 0.00 0.00 0.00 73 1014.5
20260905150700 25 340 9.7 19.3 0.00 0.00 0.00 73 1014.5
20260905150159 25 15 11.3 19.3 0.00 0.00 0.00 71 1014.5
20260905145657 26 358 4.8 12.9 0.00 0.00 0.00 71 1014.5
20260905145157 26 350 6.4 12.9 0.00 0.00 0.00 71 1014.4
20260905144658 26 36 3.2 16.1 0.00 0.00 0.00 73 1014.2
20260905144155 25 22 4.8 17.7 0.00 0.00 0.00 73 1014.2
20260905143653 25 12 8.0 17.7 0.00 0.00 0.00 72 1014.3
20260905143154 26 350 6.4 16.1 0.00 0.00 0.00 72 1014.2
20260905142651 26 351 4.8 16.1 0.00 0.00 0.00 74 1014.2
20260905142152 26 354 1.6 16.1 0.00 0.00 0.00 76 1014.1
20260905141912 25 9 6.4 16.1 0.00 0.00 0.00 76 1014.1
20260905141151 25 8 6.4 16.1 0.00 0.00 0.00 76 1014.0
20260905140648 25 19 8.0 16.1 0.00 0.00 0.00 76 1014.1
20260905140148 25 358 6.4 14.5 0.00 0.00 0.00 77 1014.0
20260905135647 25 23 4.8 14.5 0.00 0.00 0.00 78 1014.2
20260905135150 25 348 8.0 16.1 0.00 0.00 0.00 77 1014.2
20260905134646 25 2 6.4 16.1 0.00 0.00 0.00 78 1014.2
20260905134144 25 313 6.4 14.5 0.00 0.00 0.00 78 1014.2
20260905133644 25 16 3.2 11.3 0.00 0.00 0.00 79 1014.4
20260905133142 25 37 3.2 12.9 0.00 0.00 0.00 80 1014.4
20260905132904 25 5 3.2 12.9 0.00 0.00 0.00 82 1014.4
20260905132142 25 312 3.2 12.9 0.00 0.00 0.00 82 1014.1
20260905131639 25 29 8.0 12.9 0.00 0.00 0.00 82 1013.9
20260905131140 25 345 3.2 11.3 0.00 0.00 0.00 84 1014.0
20260905130636 25 5 4.8 11.3 0.00 0.00 0.00 84 1013.9
20260905130135 24 330 4.8 11.3 0.00 0.00 0.00 85 1013.9
20260905125636 24 300 3.2 11.3 0.00 0.00 0.00 87 1013.8
20260905125351 24 344 1.6 9.7 0.00 0.00 0.00 86 1013.7